Lafayette, IN

5:35 AM EST on January 18, 2018 (GMT -0500)
Purdue Univ

Weather History for KLAF - May, 2014

Change the Weather History Date:

Friday, May 16, 2014

  Actual Average Record
Temperature  
Mean Temperature 45 °F 62 °F  
Max Temperature 51 °F 73 °F 91 °F (2001)
Min Temperature 38 °F 51 °F 30 °F (1984)
Degree Days  
Heating Degree Days 20 5  
Month to date heating degree days 125 108  
Since 1 July heating degree days 6493 5598  
Cooling Degree Days 0 2  
Month to date cooling degree days 30 21  
Year to date cooling degree days 31 34  
Moisture  
Dew Point 42 °F    
Average Humidity 88    
Maximum Humidity 100    
Minimum Humidity 76    
Precipitation  
Precipitation 0.67 in 0.13 in 0.87 in (1953)
Month to date precipitation 3.70 2.09  
Year to date precipitation 12.74 11.92  
Sea Level Pressure  
Sea Level Pressure 30.00 in    
Wind  
Wind Speed 7 mph (ENE)    
Max Wind Speed 16 mph    
Max Gust Speed 20 mph    
Visibility 8 miles    
Events Rain , Thunderstorm    
T = Trace of Precipitation, MM = Missing Value Source: NWS Daily Summary

Daily Weather History Graph

Daily Weather History Graph

Search for Another Location

Airport or City:

Trip Planner

Search our weather history database for the weather conditions in past years. The results will help you decide how hot, cold, wet, or windy it might be!

Date:

Astronomy

May. 16, 2014 Rise Set
Actual Time 6:30 AM EDT 8:58 PM EDT
Civil Twilight 5:59 AM EDT 9:29 PM EDT
Nautical Twilight 5:21 AM EDT 10:07 PM EDT
Astronomical Twilight 4:38 AM EDT 10:50 PM EDT
Moon 11:04 PM EDT (5/16) 8:11 AM EDT (5/16)
Length of Visible Light 15h 29m
Length of Day
14h 27m
Waning Gibbous, 95% of the Moon is Illuminated
May 16
Waning Gibbous
May 21
Last Quarter
May 28
New
Jun 5
First Quarter
Jun 13
Full

Hourly Weather History & Observations

Time (EDT) Temp. Windchill Dew Point Humidity Pressure Visibility Wind Dir Wind Speed Gust Speed Precip Events Conditions
12:54 AM 44.1 °F 39.0 °F 37.9 °F 79% 30.04 in 10.0 mi East 9.2 mph - N/A   Overcast
1:54 AM 43.0 °F 39.5 °F 37.0 °F 80% 30.03 in 10.0 mi ESE 5.8 mph - N/A   Overcast
2:54 AM 44.1 °F 42.5 °F 37.0 °F 76% 30.00 in 10.0 mi East 3.5 mph - N/A   Overcast
3:54 AM 44.1 °F - 39.0 °F 82% 30.00 in 8.0 mi Calm Calm - 0.02 in Rain Light Rain
4:54 AM 43.0 °F 39.5 °F 41.0 °F 93% 29.99 in 6.0 mi East 5.8 mph - 0.10 in Rain Light Rain
5:54 AM 43.0 °F 37.2 °F 42.1 °F 97% 29.98 in 5.0 mi East 10.4 mph - 0.11 in Rain Light Rain
6:24 AM 43.0 °F 37.2 °F 42.1 °F 97% 29.97 in 5.0 mi East 10.4 mph - 0.01 in Rain Light Rain
6:37 AM 43.0 °F 38.2 °F 42.1 °F 97% 29.97 in 6.0 mi ESE 8.1 mph - 0.01 in Rain Light Rain
6:54 AM 43.0 °F 37.7 °F 42.1 °F 97% 29.98 in 4.0 mi ESE 9.2 mph - 0.03 in Rain Light Rain
7:11 AM 43.0 °F 37.2 °F 42.1 °F 97% 29.98 in 2.5 mi East 10.4 mph - 0.03 in Rain Rain
7:34 AM 43.0 °F 37.2 °F 41.0 °F 93% 29.98 in 4.0 mi East 10.4 mph - 0.05 in Rain Light Rain
7:54 AM 43.0 °F 38.2 °F 41.0 °F 93% 29.99 in 8.0 mi East 8.1 mph - 0.05 in   Overcast
8:54 AM 43.0 °F 38.2 °F 42.1 °F 97% 29.99 in 9.0 mi East 8.1 mph - 0.01 in   Overcast
9:54 AM 45.0 °F 39.7 °F 43.0 °F 93% 29.99 in 10.0 mi East 10.4 mph - 0.00 in   Overcast
10:05 AM 45.0 °F 39.7 °F 43.0 °F 93% 29.98 in 10.0 mi East 10.4 mph - N/A   Overcast
10:15 AM 45.0 °F 39.7 °F 43.0 °F 93% 29.98 in 10.0 mi East 10.4 mph - N/A   Overcast
10:26 AM 45.0 °F 38.9 °F 43.0 °F 93% 29.98 in 10.0 mi East 12.7 mph - N/A   Overcast
10:54 AM 46.9 °F - 43.0 °F 86% 29.98 in 10.0 mi East 13.8 mph - N/A   Mostly Cloudy
11:43 AM 45.0 °F 38.9 °F 43.0 °F 93% 29.97 in 2.5 mi East 12.7 mph - 0.01 in Rain , Thunderstorm Rain
11:54 AM 46.9 °F - 45.0 °F 93% 29.98 in 2.5 mi East 12.7 mph - 0.03 in Rain Light Rain
12:02 PM 46.0 °F 39.9 °F 44.1 °F 93% 29.97 in 7.0 mi East 13.8 mph - 0.00 in Rain Light Rain
12:46 PM 44.1 °F 40.8 °F 41.0 °F 89% 29.98 in 5.0 mi NW 5.8 mph - 0.08 in Rain Light Rain
12:54 PM 45.0 °F 41.8 °F 42.1 °F 90% 29.99 in 5.0 mi North 5.8 mph - 0.08 in Rain Light Rain
1:04 PM 46.0 °F 43.1 °F 43.0 °F 89% 29.98 in 10.0 mi North 5.8 mph - 0.00 in   Overcast
1:47 PM 48.9 °F - 43.0 °F 80% 29.98 in 10.0 mi Variable 6.9 mph - 0.00 in   Overcast
1:54 PM 48.0 °F - 42.1 °F 80% 29.98 in 10.0 mi NNE 9.2 mph - 0.00 in   Mostly Cloudy
2:54 PM 46.0 °F 43.1 °F 42.1 °F 86% 29.99 in 2.5 mi NNW 5.8 mph - 0.04 in Rain Rain
2:58 PM 46.0 °F 41.4 °F 42.1 °F 86% 29.98 in 6.0 mi North 9.2 mph - 0.01 in Rain Rain
3:16 PM 46.0 °F 44.8 °F 42.1 °F 86% 29.99 in 10.0 mi Variable 3.5 mph - 0.01 in   Overcast
3:40 PM 48.0 °F - 43.0 °F 83% 29.98 in 10.0 mi East 6.9 mph - 0.01 in   Mostly Cloudy
3:54 PM 50.0 °F - 45.0 °F 83% 29.98 in 10.0 mi NE 8.1 mph - 0.01 in   Scattered Clouds
4:29 PM 48.0 °F - 43.0 °F 83% 29.98 in 10.0 mi East 8.1 mph - N/A   Mostly Cloudy
4:37 PM 46.9 °F - 42.1 °F 83% 29.98 in 10.0 mi East 6.9 mph - N/A   Overcast
4:45 PM 46.9 °F - 41.0 °F 80% 29.98 in 2.5 mi ENE 6.9 mph - 0.04 in Rain Heavy Rain
4:54 PM 46.0 °F 43.1 °F 41.0 °F 83% 29.98 in 3.0 mi ENE 5.8 mph - 0.06 in Rain Light Rain
5:29 PM 48.0 °F - 42.1 °F 80% 29.98 in 6.0 mi North 4.6 mph - 0.02 in Rain Light Rain
5:41 PM 46.9 °F - 42.1 °F 83% 29.99 in 10.0 mi NNE 3.5 mph - 0.02 in   Overcast
5:54 PM 48.0 °F - 42.1 °F 80% 30.00 in 10.0 mi NNE 3.5 mph - 0.02 in Rain Light Rain
6:40 PM 45.0 °F 42.6 °F 41.0 °F 86% 29.99 in 4.0 mi NNW 4.6 mph - 0.01 in Rain , Thunderstorm Light Rain
6:54 PM 45.0 °F 39.7 °F 43.0 °F 93% 30.01 in 10.0 mi West 10.4 mph - 0.01 in   Overcast
7:34 PM 43.0 °F 41.3 °F 41.0 °F 93% 30.01 in 2.5 mi ESE 3.5 mph - 0.06 in Rain Rain
7:42 PM 44.1 °F - 39.9 °F 85% 30.01 in 7.0 mi North - - 0.06 in Rain Light Rain
7:54 PM 44.1 °F 40.1 °F 39.9 °F 85% 30.02 in 10.0 mi NNW 6.9 mph - 0.06 in   Overcast
8:54 PM 43.0 °F - 42.1 °F 97% 30.04 in 10.0 mi Calm Calm - 0.02 in Rain Light Rain
9:25 PM 44.1 °F - 42.1 °F 93% 30.05 in 7.0 mi Calm Calm - 0.01 in Rain Light Rain
9:32 PM 44.1 °F 41.5 °F 42.1 °F 93% 30.05 in 5.0 mi North 4.6 mph - 0.01 in Rain Rain
9:54 PM 43.0 °F 37.2 °F 39.9 °F 89% 30.06 in 9.0 mi North 10.4 mph - 0.02 in Rain Light Rain
10:12 PM 42.1 °F 36.6 °F 39.9 °F 92% 30.06 in 10.0 mi NNE 9.2 mph - 0.00 in Rain Light Rain
10:54 PM 42.1 °F 37.1 °F 39.0 °F 89% 30.09 in 10.0 mi North 8.1 mph - 0.00 in   Overcast
11:47 PM 41.0 °F 37.1 °F 39.0 °F 93% 30.09 in 10.0 mi North 5.8 mph - N/A   Overcast
11:54 PM 41.0 °F 38.0 °F 37.9 °F 89% 30.09 in 10.0 mi North 4.6 mph - N/A   Overcast